Location: Arthez
(43.0833°N, 0.2500°W)
Time: 03:27:06
(UTC+00:00)

Meteor 1-21 Rocket - Pass Details

Date: 23 October 2021
Orbit: 834 x 906 km, 81.2° (Epoch: 29 November)

Event Time Altitude Azimuth Distance (km) Brightness Sun altitude
Rises 17:33:06 0° 350° (N) 3,514 7.4 -5.7°
Reaches altitude 10° 17:35:33 10° 352° (N) 2,578 6.7 -6.2°
Maximum altitude 17:41:28 81° 80° (E) 920 4.3 -7.2°
Drops below altitude 10° 17:47:22 10° 168° (SSE) 2,581 6.7 -8.3°
Sets 17:49:50 0° 169° (S) 3,517 7.4 -8.8°
